Flag for U.S.A. Weather past 2 weeks in Amarillo, Texas, U.S.A.

Now
60 °F

Overcast.


Feels Like: 60 °F
Forecast: 58 / 70 °F
Wind: 14 mph from Southeast

Location: Amarillo International Airport

Current Time: Sep 22, 2014 at 9:15:52 AM

Latest Report: Sep 22, 2014 at 8:53 AM


Visibility: 10 mi

Pressure: 30.23 "Hg

Humidity: 80%

Dew point: 54 °F

Location of AmarilloLocation

Historic Weather in Amarillo — Graph

°F

Amarillo temperature yesterday

Maximum temperature yesterday: 80 °F (at 1:53 PM)
Minimum temperature yesterday: 64 °F (at 11:53 PM)
Average temperature yesterday: 69 °F

Past Weeks' High & Low Weather Summary

 TemperatureHumidityPressure
High92 °F (Sep 9, 4:53 PM)100% (Sep 7, 7:59 AM)30.47 "Hg (Sep 7, 7:59 AM)
Low1 °F (Sep 13, 2:53 AM)39% (Sep 9, 5:53 PM)29.62 "Hg (Sep 9, 5:53 PM)
Average67 °F79%30.02 "Hg
* Reported Sep 7 7:59 AM — Sep 22 7:53 AM, Amarillo, Weather by CustomWeather, © 2014

Note: Actual official high and low records may vary slightly from our data, if they occured in-between our weather recording intervals... More about our weather records

Advertising

Amarillo weather history for previous 24 hours

 ConditionsComfort  
Time TempWeatherWind HumidityBarometerVisibility
7:53 AM
Sep 22
58 °FPassing clouds.9 mph87%30.22 "Hg10 mi
6:53 AM60 °FPartly cloudy.8 mph80%30.20 "Hg10 mi
5:53 AM58 °FClear.7 mph87%30.20 "Hg10 mi
4:53 AM60 °FPassing clouds.8 mph83%30.20 "Hg10 mi
3:53 AM60 °FPassing clouds.7 mph83%30.20 "Hg10 mi
2:53 AM62 °FPassing clouds.6 mph80%30.18 "Hg10 mi
1:53 AM62 °FClear.8 mph80%30.17 "Hg10 mi
12:53 AM64 °FOvercast.7 mph81%30.18 "Hg10 mi
11:53 PM
Sep 21
64 °FClear.9 mph84%30.17 "Hg10 mi
10:53 PM66 °FOvercast.8 mph90%30.18 "Hg10 mi
9:53 PM67 °FMostly cloudy.10 mph85%30.19 "Hg10 mi
8:53 PM68 °FPassing clouds.10 mph84%30.15 "Hg10 mi
7:53 PM68 °FOvercast.7 mph78%30.11 "Hg10 mi
6:53 PM67 °FOvercast.12 mph85%30.10 "Hg10 mi
5:53 PM68 °FOvercast.15 mph82%30.11 "Hg10 mi
4:53 PM66 °FLight rain. Overcast.13 mph87%30.09 "Hg10 mi
4:00 PM65 °FStrong thunderstorms. Fog.21 mph94%30.22 "Hg0 mi
2:53 PM79 °FBroken clouds.14 mph58%30.06 "Hg10 mi
1:53 PM80 °FPassing clouds.9 mph56%30.08 "Hg10 mi
12:53 PM79 °FSunny.9 mph62%30.10 "Hg10 mi
11:53 AM77 °FPassing clouds.9 mph71%30.13 "Hg10 mi
10:53 AM76 °FPassing clouds.5 mph74%30.12 "Hg10 mi
9:53 AM70 °FHeavy rain. Fog.8 mph90%30.11 "Hg2 mi
Weather by CustomWeather, © 2014

See weather overviewHow to use our weather pages